Wind_Gust
11 9 3 8 7 10 9 8 11 13 11 8 10 4 12 4 6 15 14 14 13 9 4 8 8 11 11 12 12 13 25 34 22 27 25 19 7 20 16 17 21 19 18 19 17 18 19 20 22 23 22 23 23 22 22 22 22 21 21 21 20 19 20 19 18 18 18 18 17 16 17 17 18 18 17 15 15 16 15 16 14 15 21 19 18 18 17 17 16 16 16 15 14 14 14 14 14
15 10 7 6 9 8 9 9 12 8 10 16 13 5 7 5 6 10 9 7 7 14 10 9 10 14 17 22 20 23 8 11 30 24 14 12 13 17 18 19 24 24 19 18 17 16 16 19 22 22 24 24 23 23 22 22 22 21 21 21 21 20 19 19 18 19 18 18 17 17 16 17 17 17 16 15 14 14 13 15 16 16 15 16 16 16 16 16 16 16 16 15 13 13 13 13 13
15 8 12 7 10 10 13 7 15 6 8 21 19 12 4 5 7 5 8 8 8 10 8 9 7 9 15 12 11 12 13 8 8 13 15 18 23 14 17 21 22 20 20 18 17 16 16 17 20 21 24 24 23 23 22 22 21 21 21 20 21 20 18 18 18 18 18 18 18 17 16 16 17 16 16 17 16 14 13 14 16 15 14 15 16 16 16 15 16 16 15 15 13 13 13 13 12
11 6 11 6 8 5 8 7 9 9 13 14 25 7 8 9 5 5 4 6 8 4 7 10 12 6 12 14 12 7 8 8 11 20 23 23 18 26 22 24 24 21 18 17 17 16 15 19 21 21 24 24 23 23 22 22 21 21 21 20 20 19 18 18 18 17 16 16 17 17 16 16 16 16 17 17 16 14 13 13 16 16 15 15 16 17 15 16 16 15 15 15 14 12 12 12 10
8 8 11 9 9 10 10 9 10 13 15 15 21 9 7 7 7 6 3 4 5 5 4 11 13 6 6 6 9 15 15 7 4 9 23 13 17 26 25 24 25 25 20 16 17 16 15 22 20 20 22 24 23 22 22 22 21 21 20 20 20 18 17 17 18 18 16 16 17 17 15 16 16 16 16 17 16 15 13 14 14 16 16 16 17 15 14 15 15 15 14 14 13 13 12 11 10
10 8 7 6 13 7 9 8 6 10 14 12 14 23 14 8 7 4 2 4 4 5 5 2 7 9 12 10 11 10 9 16 13 13 18 17 25 27 27 23 23 25 20 17 15 15 16 25 20 20 21 23 23 22 22 22 21 20 20 20 19 18 17 18 17 17 17 17 16 16 15 15 16 16 16 16 15 14 11 9 14 13 16 18 17 16 15 15 15 14 14 13 13 12 12 10 10
8 6 6 6 11 7 12 10 12 12 15 11 20 29 14 7 7 6 2 3 5 8 5 6 4 4 5 12 9 6 7 7 17 13 17 26 26 27 27 24 23 23 20 18 17 14 17 22 20 20 21 23 23 22 21 21 21 20 20 19 19 18 18 17 16 16 16 17 16 15 14 14 15 16 15 15 15 13 10 8 16 14 15 16 15 15 15 15 14 15 13 12 12 12 11 10 10
4 6 7 8 13 9 12 10 13 17 16 18 19 26 20 16 8 6 5 4 7 7 6 7 6 7 15 7 13 8 13 13 9 16 23 28 27 25 24 25 25 23 23 18 16 13 19 20 20 20 22 21 22 22 21 21 20 20 20 19 19 18 17 17 16 16 16 16 16 14 14 14 14 15 15 14 14 13 12 12 17 14 16 15 14 14 14 13 13 13 12 12 12 12 12 12 11
5 6 4 7 11 13 7 13 15 8 9 9 20 22 19 10 13 8 6 8 2 4 10 7 8 6 10 11 10 10 9 10 16 19 20 26 26 26 27 23 27 24 22 18 16 15 15 18 20 20 21 21 21 22 21 20 20 20 19 19 18 17 17 17 17 16 16 16 14 14 14 14 14 14 14 14 14 14 13 14 15 16 15 14 13 15 14 12 12 12 12 13 13 13 12 12 13
8 7 12 18 9 16 10 11 9 13 18 16 17 24 18 9 12 17 11 7 9 5 11 6 11 14 4 6 11 9 9 10 19 17 18 21 26 23 22 22 24 28 23 19 16 16 14 20 20 20 20 20 20 20 20 19 18 18 19 18 18 16 16 16 15 16 16 15 15 14 13 13 14 14 14 15 15 14 13 15 15 15 15 15 14 13 12 11 11 12 13 13 13 13 12 13 14
17 10 7 13 9 16 18 11 10 7 8 11 14 29 14 6 8 20 13 9 11 12 8 11 7 9 6 7 11 5 8 13 22 22 19 23 21 22 21 20 20 22 25 21 17 15 16 16 23 18 18 19 18 17 17 17 17 16 16 16 16 17 17 16 16 17 15 15 15 14 13 13 13 13 14 14 14 14 13 15 15 15 15 14 13 11 11 10 11 12 13 13 13 12 13 13 14
12 12 10 16 20 20 16 16 12 15 8 6 18 22 6 11 10 16 21 13 11 11 14 13 15 14 6 8 12 3 8 9 14 23 21 21 22 20 20 20 18 17 18 21 18 15 15 15 18 21 21 20 17 17 16 18 17 16 16 17 16 16 15 15 16 15 14 15 15 14 13 13 13 13 13 13 13 13 13 15 15 15 15 14 12 11 9 9 10 11 13 13 12 13 13 14 13
14 6 8 16 18 10 8 11 14 10 13 19 17 27 7 6 11 12 14 12 15 14 13 20 10 15 16 13 9 5 10 7 15 22 24 20 19 20 17 18 19 19 20 17 16 16 14 14 16 16 17 22 19 18 16 18 17 16 15 17 16 16 17 17 16 15 15 15 14 13 13 13 13 13 13 13 14 13 13 14 15 15 15 14 12 10 9 8 9 11 12 13 12 12 13 13 13
15 16 14 24 6 12 16 15 7 17 21 17 14 14 6 9 9 14 12 10 14 15 14 11 16 10 6 8 9 10 14 13 18 16 21 20 19 18 16 18 18 19 19 19 17 16 15 14 14 13 17 17 15 19 19 19 19 19 16 16 16 17 17 16 15 15 15 15 15 14 13 13 12 13 13 13 14 14 13 13 15 14 14 13 11 10 9 8 8 10 12 12 11 12 13 13 13
14 8 13 14 14 11 15 26 17 17 25 13 15 9 8 13 8 7 9 17 16 14 5 14 22 17 18 18 16 23 19 19 20 16 19 19 18 17 17 17 17 17 17 16 17 17 15 14 13 12 12 13 14 13 12 18 21 20 18 18 18 17 16 17 16 14 15 14 14 13 14 13 13 13 13 12 13 14 13 12 14 12 13 12 11 9 8 7 8 9 11 11 11 11 12 12 11
11 11 15 17 25 20 20 23 9 15 27 11 10 7 8 10 12 14 16 16 13 9 18 18 12 22 12 27 22 25 22 22 20 19 19 20 16 14 16 16 17 16 16 17 17 15 15 14 11 13 12 13 11 10 11 13 19 21 20 19 19 18 18 17 16 14 15 14 13 13 13 11 11 10 14 11 13 13 12 9 13 11 12 11 9 8 7 6 7 9 10 10 10 11 12 11 10
4 8 16 23 26 21 18 21 15 36 7 12 6 9 17 22 9 17 9 11 13 7 11 15 31 9 24 21 14 26 22 22 20 20 19 19 20 17 16 16 16 15 15 16 16 16 15 15 13 14 14 13 12 12 11 11 16 21 18 20 20 19 17 17 16 15 13 12 11 11 11 7 5 5 8 5 12 8 10 12 11 11 10 10 8 6 6 5 6 8 8 9 10 11 11 11 11
6 19 26 27 25 24 17 25 21 10 16 12 7 11 14 22 13 13 5 10 12 9 13 5 11 9 12 10 21 24 25 25 27 28 22 22 20 22 22 19 20 23 21 19 16 16 18 15 16 16 16 15 13 14 12 11 13 17 11 12 13 15 15 14 13 7 11 4 11 9 7 8 6 4 5 10 6 8 9 11 11 11 9 8 6 5 4 4 6 7 6 8 10 11 11 9 9
16 16 20 36 23 23 12 18 11 12 16 7 15 13 16 23 21 14 19 10 14 13 8 3 7 8 12 20 24 28 27 25 24 27 31 30 29 29 26 23 22 20 21 20 18 18 17 17 16 17 16 16 16 13 12 11 11 10 11 11 11 12 11 11 7 7 5 6 6 8 8 7 6 5 4 7 6 10 7 11 11 10 9 8 7 5 4 4 4 6 6 6 11 12 9 8 10
11 11 25 33 7 6 13 8 12 13 6 14 14 10 12 18 20 14 16 9 12 20 14 3 9 9 19 20 24 26 25 25 24 25 25 24 26 30 25 25 23 21 22 22 23 19 18 18 18 18 18 17 17 14 13 12 9 10 10 10 9 9 8 8 7 6 7 7 7 7 8 7 6 7 10 14 12 7 7 10 10 9 9 8 7 5 6 5 7 7 6 8 9 7 7 8 11
10 16 29 16 4 13 7 8 12 10 9 9 14 12 13 12 14 12 7 14 17 20 17 20 16 20 23 25 26 26 25 25 23 21 21 19 17 20 25 28 28 25 22 19 18 21 20 19 18 18 18 17 16 15 14 14 11 12 11 10 9 9 7 8 8 7 7 7 7 7 7 6 7 7 3 3 7 6 4 4 3 3 4 3 6 5 4 5 5 5 6 6 7 7 7 9 11
11 14 9 7 12 8 9 9 9 8 10 11 9 14 25 8 9 10 12 21 27 24 12 19 22 24 25 24 27 29 29 28 26 24 25 26 27 22 19 17 14 17 18 21 21 20 20 20 18 18 18 16 17 16 15 15 14 13 13 11 10 9 8 8 7 8 7 7 7 7 8 8 7 7 4 3 6 7 6 5 5 5 5 5 5 5 5 5 6 5 5 6 8 7 8 9 11
19 19 9 6 5 9 8 13 12 9 12 11 12 17 17 7 11 12 15 24 20 14 16 20 21 23 28 28 26 23 24 28 27 29 27 24 22 21 23 23 25 24 22 21 22 21 22 19 19 18 18 18 17 15 14 14 13 13 12 12 12 11 8 9 9 8 8 7 7 7 9 8 8 7 7 5 7 6 6 5 6 5 6 6 6 6 7 7 6 5 4 6 7 8 8 10 11
10 24 5 13 8 11 7 14 15 15 9 17 15 16 19 15 23 19 20 18 17 17 13 23 33 32 28 29 30 31 31 29 31 30 31 32 26 23 22 24 21 16 19 19 20 21 23 23 20 19 20 19 18 17 15 14 12 13 13 15 13 15 12 10 10 10 8 9 7 8 7 8 8 8 7 7 7 6 6 6 6 6 7 7 6 5 5 5 4 4 3 6 7 8 9 11 13
12 18 5 8 5 8 7 8 15 16 17 16 14 18 23 22 24 14 23 22 11 12 11 19 22 32 34 35 31 33 33 30 29 24 16 15 19 19 17 17 17 20 21 21 21 21 23 23 21 21 20 20 17 18 16 14 13 13 13 13 12 15 12 11 11 8 9 9 8 8 7 8 7 7 8 9 7 8 6 6 7 8 7 7 6 6 6 5 4 3 5 7 8 9 11 13 14
8 6 8 8 7 7 9 11 10 16 18 12 14 21 22 23 19 25 27 27 19 9 8 12 20 25 31 35 38 34 32 31 28 24 28 23 19 21 21 22 20 22 21 21 21 21 20 21 22 23 21 22 19 17 16 15 14 15 15 14 11 15 11 11 9 10 9 9 9 8 9 8 8 9 8 7 8 8 7 7 7 8 8 7 7 7 7 5 5 5 8 8 10 10 15 16 14
9 10 8 9 9 11 9 12 12 14 19 16 18 21 26 18 15 30 22 26 24 13 9 7 20 24 28 28 31 36 36 33 33 31 20 16 19 23 21 19 22 22 21 22 22 22 21 21 21 22 20 19 19 19 16 15 14 14 15 13 12 12 11 11 10 9 9 9 9 9 8 8 8 8 9 9 7 8 9 8 8 7 6 6 7 7 6 5 5 5 9 9 10 11 13 15 14
11 10 10 9 7 8 9 9 15 11 20 10 7 20 20 20 16 36 29 18 14 16 20 9 21 19 27 30 31 28 31 34 35 26 31 26 28 28 27 31 28 25 27 26 23 20 21 22 22 21 20 20 20 19 17 16 15 15 14 13 12 12 10 10 10 9 9 9 8 8 8 8 8 8 9 8 8 9 9 8 7 7 7 6 7 6 7 6 6 8 10 9 9 13 15 14 12
10 7 17 10 8 23 6 14 13 9 23 12 11 19 24 21 25 38 32 19 9 9 13 8 19 23 22 24 30 30 30 26 22 27 30 35 34 32 34 32 30 29 22 24 24 22 23 23 23 21 20 19 19 19 18 15 14 14 15 14 12 13 10 10 10 10 9 8 7 8 9 9 9 10 8 8 10 8 8 7 7 7 6 6 6 8 9 8 9 10 11 11 11 12 14 15 13
8 7 7 15 17 19 13 10 11 11 21 9 8 32 27 31 34 38 24 11 9 9 12 9 15 24 25 22 21 19 19 23 27 32 31 30 26 27 29 24 25 25 25 23 22 25 24 21 21 21 21 21 20 18 16 16 15 14 15 13 14 13 11 11 10 9 9 8 8 8 10 10 10 8 8 7 7 8 7 7 7 7 6 6 7 9 9 9 10 12 11 12 11 12 14 15 14
11 10 6 13 12 24 6 10 6 17 17 8 9 26 30 25 28 32 23 13 11 18 17 9 13 17 22 24 23 25 22 25 31 32 31 32 27 25 23 20 22 21 22 23 26 26 23 22 22 21 23 21 22 19 19 16 15 15 15 14 14 12 11 11 10 9 9 9 8 9 10 9 9 9 7 9 8 8 8 7 7 7 6 6 7 8 10 9 11 12 12 14 11 11 11 12 12
7 14 18 9 15 21 10 11 5 20 16 11 10 26 36 26 29 24 18 18 10 19 22 16 12 15 18 20 23 23 23 23 25 25 20 17 15 19 23 25 25 23 25 26 23 23 23 20 20 19 21 21 21 20 17 16 16 15 14 14 13 11 11 11 10 10 10 9 9 10 9 9 8 8 8 8 9 8 8 8 7 7 6 8 8 9 10 11 10 11 9 15 16 10 14 11 9
10 15 16 17 7 12 17 6 9 13 17 6 16 26 29 25 25 23 16 18 18 20 24 19 14 15 18 20 22 22 21 17 16 17 16 18 16 17 19 21 26 26 21 22 24 23 22 21 23 20 22 22 20 18 16 14 14 14 13 14 13 11 11 11 10 10 9 10 10 10 9 8 9 9 9 8 9 8 7 7 6 7 6 8 9 9 10 11 13 13 9 7 14 14 13 14 11
20 8 17 8 7 8 17 12 13 7 9 14 12 27 35 18 8 13 16 19 21 23 21 21 18 17 18 20 21 21 22 23 25 23 23 21 20 19 19 20 23 21 20 21 22 25 25 23 22 22 21 21 20 19 16 15 14 13 13 12 12 12 11 11 10 10 11 11 10 11 9 8 9 9 9 9 8 8 7 8 7 7 8 9 10 10 10 10 11 14 13 9 10 18 14 15 14
8 6 12 16 6 8 14 14 8 14 10 8 14 26 37 26 17 23 22 16 13 19 19 20 20 20 21 19 20 21 24 26 29 27 25 24 21 19 20 21 22 22 22 23 21 20 20 21 21 21 22 21 19 17 15 13 13 11 11 12 11 10 10 9 10 11 11 11 11 10 9 9 10 10 9 9 9 8 8 7 8 7 8 9 11 12 11 10 11 11 16 13 11 9 14 12 15
6 3 10 7 9 13 15 8 9 6 13 15 14 28 36 27 22 20 22 18 18 23 20 19 22 23 23 23 22 22 22 26 27 27 28 25 22 21 22 23 24 23 23 24 22 22 21 20 19 21 21 22 18 16 16 16 14 15 16 11 10 10 10 11 9 11 11 11 11 10 10 10 10 11 10 9 9 9 8 8 9 8 8 10 12 13 12 13 14 13 13 17 15 13 10 12 14
11 11 10 15 10 18 10 11 9 12 17 17 19 25 34 27 23 20 19 16 15 20 24 24 21 22 22 23 25 26 25 28 25 24 21 21 21 18 15 17 19 18 21 24 25 24 24 26 22 23 21 21 21 21 21 21 21 18 15 17 16 13 13 11 11 10 10 11 11 11 10 10 10 10 10 10 10 9 8 8 9 8 9 10 11 12 12 12 11 14 14 11 19 17 9 8 8
9 10 10 19 11 22 16 15 9 12 16 16 20 26 35 22 19 21 19 16 21 21 21 24 23 24 24 25 25 27 28 24 18 15 11 11 14 14 15 17 18 23 23 24 28 30 25 23 24 23 20 21 22 22 21 20 19 22 19 17 13 14 14 16 14 11 12 10 10 11 11 10 11 11 10 9 9 9 10 10 10 11 10 10 9 10 11 13 13 14 16 14 5 14 15 12 15
12 14 13 16 21 15 15 17 15 17 19 25 21 29 34 25 22 18 18 22 23 23 20 25 24 25 25 25 25 25 22 21 19 20 20 21 19 19 21 20 21 24 23 26 26 23 22 23 22 21 22 23 22 22 22 22 16 16 17 15 15 13 7 9 11 11 11 12 11 10 10 11 11 10 10 10 10 9 10 11 10 10 10 12 13 11 12 13 14 16 15 19 13 6 9 8 10
14 12 11 21 15 8 17 10 7 11 22 15 17 25 31 20 17 15 14 18 23 21 20 23 22 25 28 28 27 26 26 26 22 24 24 21 22 22 20 21 22 21 22 22 23 25 24 23 21 23 23 22 21 21 20 16 16 12 11 14 12 12 12 9 9 10 10 11 11 10 9 11 11 11 10 9 8 9 10 11 10 11 11 11 14 15 12 13 12 11 10 13 19 14 12 13 8
12 14 17 19 15 15 17 18 15 10 17 16 20 29 37 24 25 24 17 18 22 25 21 21 24 25 28 29 30 30 32 29 28 25 23 23 24 24 26 25 24 25 24 26 27 28 27 27 25 24 23 23 21 20 19 18 18 15 13 12 12 12 9 12 12 10 10 12 12 10 12 10 11 11 10 10 10 10 9 11 11 11 11 10 13 15 14 15 15 14 15 15 16 19 13 14 11
15 13 18 19 17 16 14 14 16 17 18 20 11 29 42 18 15 23 20 19 19 21 22 23 25 27 27 26 28 29 31 33 33 32 32 29 28 26 25 24 25 25 27 28 27 27 21 23 23 22 21 20 21 20 20 21 21 22 20 20 20 17 16 18 21 18 15 14 14 10 9 10 10 10 10 10 9 10 10 10 10 12 11 11 11 13 13 11 11 12 14 16 12 10 21 13 16
11 19 13 19 20 18 15 15 14 16 23 22 14 27 43 7 9 10 12 12 17 17 20 21 22 26 26 25 25 28 30 27 28 32 31 31 29 29 29 28 28 28 28 26 24 22 22 22 22 23 22 21 20 19 21 21 20 21 23 22 20 20 20 17 13 13 16 13 12 12 11 8 9 11 9 9 9 10 11 10 11 11 11 11 10 12 13 14 14 15 13 12 15 13 11 17 17
24 12 12 12 16 17 19 20 21 21 15 25 19 18 26 33 13 11 12 10 14 17 19 21 22 21 23 22 24 25 28 27 28 28 30 33 33 33 32 30 30 33 29 24 24 23 25 25 24 23 22 21 19 20 23 23 23 21 20 19 19 18 18 17 15 13 11 12 13 11 10 9 8 9 11 10 11 11 12 11 12 12 12 11 13 14 15 13 12 9 12 12 11 13 16 17 15
19 14 16 18 18 18 18 18 19 20 17 28 26 11 34 35 18 9 13 20 22 22 20 23 22 24 25 24 28 29 29 27 26 29 29 30 33 33 32 32 31 30 26 26 28 29 27 23 22 20 21 20 20 21 23 21 22 23 22 20 18 14 15 15 14 13 13 12 11 10 10 10 9 8 10 11 11 12 13 13 12 12 13 12 12 12 11 14 16 16 13 11 12 11 11 8 14
12 14 7 10 10 15 17 19 18 19 19 25 27 18 31 34 12 16 12 17 25 27 25 26 24 28 29 26 24 28 27 24 25 27 29 29 30 32 33 34 31 30 29 28 26 23 20 20 23 23 22 22 21 22 22 20 19 21 21 19 19 15 13 13 14 15 13 12 13 11 11 11 11 10 9 9 10 10 12 12 12 13 13 12 10 12 12 11 9 11 15 14 12 13 10 10 14
9 12 13 14 12 13 14 18 22 18 27 25 24 24 19 35 14 19 21 21 18 20 25 25 22 27 29 23 21 25 25 25 24 23 23 26 28 30 30 31 30 25 23 23 22 23 23 23 24 24 23 21 20 23 21 22 19 20 21 19 19 18 16 17 16 15 14 12 13 11 12 11 11 12 11 9 9 10 11 13 13 13 11 11 11 11 12 12 12 12 11 9 12 14 13 11 7
7 13 12 12 16 4 6 10 11 25 28 18 18 23 16 33 20 14 13 14 14 16 20 25 23 21 27 17 18 24 26 26 26 26 24 23 21 25 25 24 21 21 19 22 22 21 22 23 23 23 21 22 21 22 21 22 21 20 17 19 20 19 20 20 20 19 17 16 14 14 10 11 10 10 10 11 10 10 12 10 9 11 11 11 11 10 11 11 11 9 10 11 12 10 9 11 9
8 8 5 7 13 11 15 9 14 22 30 12 14 17 22 29 26 16 16 17 20 18 20 24 23 22 20 19 18 20 24 24 28 28 27 27 28 28 23 19 16 18 23 24 26 25 24 22 24 26 25 22 23 22 23 22 20 20 20 20 19 19 20 20 19 19 17 17 15 14 14 14 12 12 12 13 11 12 13 12 11 12 11 10 11 11 10 10 11 10 10 9 9 11 13 12 12
11 10 9 10 15 13 14 13 14 12 12 12 20 11 35 15 17 23 29 30 29 25 23 24 25 24 18 17 19 21 22 25 27 28 30 31 32 30 27 27 26 25 24 27 25 24 23 24 24 26 25 23 21 21 22 22 22 20 18 19 19 19 19 19 19 19 17 17 16 17 18 18 17 16 15 14 15 12 10 11 12 11 9 10 11 11 11 9 10 11 11 11 11 8 8 9 9
17 9 18 16 15 19 15 17 19 15 14 14 13 20 21 13 16 17 25 29 28 25 25 24 25 24 19 16 19 24 23 23 26 28 30 32 33 31 30 28 26 26 26 27 25 25 24 24 26 26 24 23 23 24 22 23 22 19 18 19 19 18 19 18 18 17 19 17 15 16 15 14 15 14 15 11 11 11 11 10 10 11 10 10 9 10 10 8 7 8 7 7 8 9 8 10 9
20 11 6 11 25 12 22 14 13 12 14 17 17 22 11 21 12 21 25 27 25 22 20 16 18 19 20 13 17 22 26 27 27 28 30 30 32 31 31 29 28 26 26 25 26 26 26 27 27 29 29 27 25 23 23 24 21 19 17 19 20 18 16 16 14 14 16 18 18 18 16 15 13 14 13 14 12 12 12 11 10 10 9 9 10 11 10 10 9 9 8 8 9 6 11 9 9
13 16 23 20 9 8 10 11 10 10 10 28 20 21 25 18 24 23 19 16 20 21 17 12 16 16 15 14 16 22 26 30 31 30 30 29 27 29 32 30 29 27 26 28 29 30 31 29 27 26 24 22 24 25 25 22 21 19 19 19 18 18 18 19 18 16 17 15 16 15 16 14 13 13 14 11 13 10 11 11 11 10 10 10 10 10 10 10 9 9 10 8 9 7 9 10 9
8 12 17 6 7 9 11 17 17 12 18 25 6 13 14 12 29 16 12 15 18 19 12 14 12 14 15 16 15 21 24 25 29 30 30 32 32 32 30 29 29 31 31 31 31 28 29 29 29 30 27 28 26 25 24 23 23 21 20 20 19 20 19 17 17 18 16 16 13 13 13 15 15 14 14 12 12 12 10 11 11 10 10 10 9 9 9 9 10 9 8 8 8 9 10 8 7
16 11 7 18 13 10 9 13 14 13 19 19 13 11 19 14 21 10 7 8 9 10 8 10 13 15 16 18 13 17 21 22 24 29 32 33 34 33 32 30 28 28 30 31 32 30 26 23 25 28 30 30 27 25 22 21 21 20 20 21 19 18 16 16 15 16 17 18 17 16 16 15 13 13 15 14 13 12 12 10 10 10 9 9 9 9 9 9 9 11 9 10 8 9 11 10 7
9 7 11 7 13 11 12 20 11 13 15 7 14 8 21 19 20 11 12 8 5 7 8 8 11 11 13 15 15 13 20 25 26 28 30 32 32 33 34 32 30 29 27 25 24 23 24 26 25 24 21 17 18 22 23 23 22 20 18 17 16 17 17 17 17 19 19 18 17 17 15 15 18 15 14 14 14 14 13 12 10 11 10 9 10 9 9 9 10 9 11 10 9 10 11 11 9
7 10 10 10 13 8 10 12 15 16 16 13 14 16 22 17 11 13 9 8 8 9 13 11 11 14 15 16 19 14 19 25 26 28 29 30 31 31 32 32 33 30 28 28 28 30 29 26 25 25 27 27 26 25 23 22 21 20 20 21 20 18 18 17 16 17 18 17 16 16 17 17 14 15 15 15 15 14 13 13 13 12 12 12 11 11 10 10 10 10 9 10 10 10 12 9 10
9 13 12 11 10 9 10 19 12 19 19 20 14 24 23 18 12 12 10 15 14 10 11 14 12 14 14 18 19 15 17 23 27 28 27 30 29 29 29 29 26 27 26 24 25 25 23 24 27 27 26 25 25 25 25 24 22 22 22 21 20 18 19 18 18 18 17 18 17 18 17 17 18 15 16 16 15 13 13 13 13 12 11 11 11 12 11 11 12 11 9 9 10 10 11 10 9
Wind_Speed
5 6 2 4 4 6 4 3 1 2 2 1 0 1 1 1 2 2 5 5 5 0 1 1 4 1 1 3 2 1 4 9 7 9 9 4 4 10 10 10 15 13 11 10 9 10 12 15 18 18 18 18 18 18 18 18 18 17 16 16 15 15 14 14 14 13 13 13 13 13 13 14 15 14 12 12 13 13 12 11 9 13 16 14 15 14 13 13 13 12 12 11 10 10 10 9 8
5 5 4 2 3 1 1 1 1 3 3 2 3 2 2 1 2 0 3 1 2 2 2 3 3 2 3 7 1 2 1 2 1 2 4 5 8 9 10 12 17 16 12 10 9 9 9 12 17 18 19 18 17 17 17 17 18 17 17 15 15 15 14 14 14 13 12 12 12 13 13 14 14 14 13 12 11 12 10 12 12 10 13 13 12 13 13 13 12 12 12 11 9 9 9 9 7
3 5 6 0 4 3 0 1 3 0 3 9 1 6 1 3 2 1 1 1 2 3 2 2 4 2 5 5 1 2 6 3 4 3 5 10 14 7 12 14 15 14 13 9 8 8 8 11 16 17 19 19 17 17 17 17 17 17 16 15 15 14 14 14 14 13 12 12 12 12 13 13 12 12 13 12 11 11 11 11 12 12 11 12 13 12 12 12 13 12 11 11 10 9 9 8 6
3 2 6 1 1 2 2 2 2 4 6 6 4 3 4 5 3 2 2 1 5 2 0 4 3 2 2 4 3 3 2 0 0 8 7 10 6 14 13 16 17 13 11 8 8 9 8 12 16 17 18 18 18 17 17 17 17 17 16 16 15 14 14 14 14 13 12 12 12 12 12 12 12 12 13 13 12 11 10 11 12 11 11 12 13 13 12 12 12 12 11 11 10 9 8 7 7
5 1 3 1 3 1 2 2 1 2 7 2 6 2 4 4 5 2 1 2 3 2 2 1 1 1 1 1 0 1 3 4 2 4 3 5 4 14 16 17 16 15 12 11 9 8 9 16 16 15 17 18 18 17 16 17 17 16 16 16 16 14 14 14 15 14 13 13 12 12 12 13 12 13 13 13 12 11 10 11 11 13 13 13 14 12 11 12 12 11 11 10 9 9 9 8 7
6 5 4 2 2 1 3 0 1 5 6 4 5 4 6 6 5 2 1 2 2 1 4 1 1 0 1 2 3 0 1 0 2 1 3 2 12 14 18 14 14 15 13 10 9 7 8 18 15 15 15 17 17 17 16 16 17 16 16 16 15 14 14 14 14 13 13 14 12 11 11 12 12 12 13 12 11 11 9 7 11 10 13 14 13 12 12 12 11 11 11 9 9 9 9 8 7
2 3 2 1 2 1 3 4 7 5 7 4 5 3 8 4 5 4 0 1 1 1 1 2 2 2 1 2 1 2 3 2 2 1 3 11 11 12 16 15 14 15 13 11 10 8 8 16 14 14 15 17 18 17 17 16 16 16 15 15 15 14 14 14 13 13 13 14 13 11 10 11 12 12 11 11 9 8 6 7 13 11 12 13 12 12 12 11 11 11 10 9 9 9 9 8 8
0 2 1 1 2 1 3 4 7 5 6 8 4 7 6 5 6 2 2 2 2 1 2 3 2 2 4 1 1 3 6 4 6 2 11 15 15 13 13 15 15 15 14 11 10 7 13 15 14 14 15 16 17 15 17 16 15 15 15 14 14 14 14 13 13 13 13 13 12 11 10 10 10 12 11 10 8 6 5 9 13 12 13 12 11 11 11 10 10 10 9 10 10 9 9 9 9
1 2 1 1 3 1 1 6 6 2 3 3 5 5 12 7 5 3 4 3 0 0 1 2 3 2 2 1 4 3 3 5 6 7 12 15 16 16 13 15 16 14 14 11 10 8 8 14 14 14 16 16 16 16 16 16 15 15 15 14 14 13 13 13 13 13 13 13 11 11 10 10 10 10 10 9 8 7 6 12 12 13 12 11 11 12 11 10 9 9 10 10 10 10 9 9 10
1 2 3 3 3 8 4 4 3 6 7 7 6 6 10 3 3 5 5 2 4 2 4 2 6 5 2 3 3 5 2 6 7 8 10 12 10 7 12 12 12 18 15 12 10 9 7 15 15 15 14 15 15 15 15 14 14 14 14 14 14 12 13 13 13 13 13 12 12 11 11 10 10 10 10 9 9 8 10 12 12 13 12 12 11 10 10 9 9 9 10 11 10 10 9 9 11
3 3 2 2 4 7 9 6 5 3 4 3 5 7 6 2 3 3 5 4 4 6 3 3 1 5 2 2 4 0 5 8 6 9 9 15 11 10 10 10 10 12 15 14 11 9 9 10 18 14 14 14 14 13 13 13 13 13 12 12 13 13 14 13 13 14 12 12 12 11 10 10 10 10 10 10 9 9 10 12 12 12 13 12 11 9 8 8 9 9 10 10 10 10 9 9 11
2 3 1 7 8 9 7 7 6 7 4 2 4 4 1 4 2 1 4 5 2 4 5 6 3 6 2 1 2 0 4 6 6 7 8 8 11 12 12 10 10 9 12 14 12 9 9 9 11 15 16 15 14 14 13 13 13 12 12 13 12 12 12 11 13 12 12 12 12 11 10 10 10 10 10 10 10 10 11 12 12 12 12 11 10 9 7 7 8 9 10 10 10 10 9 10 11
4 2 4 3 5 4 4 5 6 5 4 7 4 1 3 4 6 6 3 7 4 5 5 10 1 5 3 3 1 2 6 4 10 10 9 7 6 8 9 10 11 12 13 11 11 10 9 8 9 10 12 18 15 15 13 13 13 12 11 13 12 13 13 13 13 12 12 12 12 11 10 10 10 10 10 10 10 9 11 12 12 12 12 11 9 8 7 6 7 9 10 10 9 10 10 9 10
4 6 6 8 1 4 6 5 4 7 8 1 2 1 1 1 4 6 6 6 6 5 6 5 2 3 1 3 3 4 6 8 12 11 8 8 6 6 8 9 10 12 13 12 11 10 9 9 8 8 10 10 9 14 15 16 14 14 12 12 12 13 13 13 12 12 12 12 12 11 10 9 10 10 10 10 10 10 9 10 12 12 11 10 9 8 7 6 7 8 10 9 9 10 10 9 9
5 2 2 2 4 4 4 8 8 6 10 5 2 4 2 3 1 1 2 4 7 6 1 3 3 4 5 9 6 8 9 12 13 11 10 8 7 7 8 8 9 11 11 11 11 11 10 8 8 7 8 8 9 7 7 11 16 14 13 13 13 13 13 13 13 12 12 11 11 10 11 10 9 10 10 10 10 11 10 9 11 10 11 10 8 7 6 6 6 8 9 8 8 9 10 9 8
2 3 1 4 9 8 4 9 5 8 6 5 4 6 5 5 2 4 5 6 2 3 4 3 3 5 3 12 7 8 15 15 12 12 11 9 7 6 8 8 8 10 10 10 10 9 9 9 7 7 7 8 7 6 7 7 13 16 14 14 14 14 14 13 13 11 12 11 10 10 10 7 8 7 11 8 10 10 9 6 11 9 10 9 7 6 5 5 5 7 8 8 8 9 9 8 8
1 1 3 5 11 8 4 5 8 8 3 6 4 6 7 6 3 5 3 4 3 4 5 3 6 1 3 2 7 16 15 14 12 13 13 9 7 7 7 7 7 8 7 9 9 9 9 9 9 8 8 8 8 7 6 7 9 14 13 15 15 14 13 13 12 12 10 9 8 8 8 5 4 3 5 4 9 5 7 8 9 9 8 8 6 5 4 4 5 6 7 7 8 9 8 7 8
2 4 6 11 8 9 5 8 7 4 7 7 5 7 8 10 5 3 3 4 6 4 8 1 2 5 2 2 10 15 16 16 14 15 12 10 8 8 10 9 10 9 9 9 9 10 10 9 10 10 9 9 8 7 6 5 6 11 7 7 8 10 11 11 9 5 7 3 8 5 5 4 4 3 3 6 4 5 6 7 7 8 7 6 4 4 3 3 4 5 5 6 8 9 7 5 5
6 2 4 15 6 4 7 5 5 4 4 5 10 9 10 13 9 2 6 2 4 6 2 2 1 4 7 7 11 15 17 15 16 14 14 12 9 11 12 11 11 11 10 9 9 10 9 9 9 11 10 10 10 9 6 6 6 6 6 6 5 8 7 7 4 4 3 4 4 5 5 4 4 3 3 4 3 6 5 8 7 7 6 6 4 3 2 2 3 4 4 5 9 8 5 4 5
3 3 9 10 0 1 1 1 4 3 4 5 7 6 7 8 6 1 7 6 6 10 3 2 3 2 3 6 9 12 13 16 16 17 17 15 10 7 8 13 12 12 12 11 10 9 9 9 11 11 11 11 10 7 6 6 5 6 5 5 5 5 4 5 5 4 4 4 5 4 5 4 4 4 6 10 8 4 4 7 8 7 7 5 4 3 4 3 5 5 4 6 6 3 3 4 6
2 3 8 2 2 1 2 5 5 5 3 2 5 5 5 5 4 4 4 8 10 10 9 9 9 9 8 8 8 10 13 15 14 14 15 13 12 9 8 7 8 10 10 10 9 10 11 10 10 10 10 10 10 8 8 7 6 6 6 5 5 5 4 4 4 4 4 4 5 5 4 4 4 4 2 1 4 4 2 1 0 2 2 2 4 2 1 1 2 2 2 3 3 4 4 5 6
1 5 1 2 1 1 4 4 4 5 4 4 6 4 7 1 1 5 8 11 11 9 6 12 13 13 12 11 12 10 12 16 17 16 17 17 16 13 8 6 4 5 8 10 12 11 11 10 11 9 10 10 10 8 8 8 7 6 6 6 5 5 4 5 4 4 4 5 5 4 5 5 5 4 3 2 4 4 4 2 2 2 2 2 2 1 0 0 1 1 1 3 4 3 4 5 6
6 1 2 0 1 1 4 6 5 4 4 5 4 4 9 4 5 6 10 14 8 5 9 12 14 15 17 13 12 12 13 15 17 19 18 16 15 14 11 9 7 8 7 8 9 10 12 11 11 10 10 10 11 8 7 7 6 6 6 6 6 5 4 5 4 4 4 4 5 4 5 5 5 5 5 3 4 4 4 3 2 2 2 2 2 2 1 1 0 0 1 3 4 4 4 5 7
1 4 3 7 2 3 5 6 6 3 5 5 3 6 5 6 8 2 5 9 8 5 9 13 14 16 14 13 14 16 16 16 19 20 21 22 18 15 13 11 8 6 7 8 9 10 11 13 11 11 10 10 9 9 8 8 6 7 7 8 7 6 5 5 4 4 4 4 4 4 4 5 5 5 4 4 4 4 4 3 2 2 2 2 2 2 2 1 1 1 0 4 4 5 5 7 7
3 3 2 2 3 2 3 3 7 7 4 3 4 5 7 5 5 7 14 14 7 7 4 4 9 13 17 17 16 17 15 13 11 8 5 6 11 13 11 9 10 9 10 10 9 10 11 11 12 12 10 11 9 9 8 7 7 7 7 7 6 8 5 5 5 4 4 4 4 4 4 5 4 4 5 4 4 4 4 4 3 3 3 3 2 2 2 2 1 1 3 4 5 6 6 7 7
4 2 5 2 3 3 5 4 2 6 6 2 8 10 6 6 9 10 17 17 13 6 3 4 7 9 15 21 24 19 17 19 17 12 15 11 11 14 13 13 12 13 12 10 10 10 10 11 12 12 11 10 9 9 7 7 7 8 8 7 6 7 5 5 6 5 4 4 4 4 4 4 5 5 4 4 5 4 4 3 4 4 4 4 3 3 3 3 2 2 4 4 6 6 8 8 7
1 3 4 5 6 4 3 3 2 3 3 5 4 9 7 4 2 11 12 7 8 8 4 1 10 10 12 12 15 20 21 22 20 16 8 7 10 13 13 12 14 14 13 13 12 11 10 11 12 12 11 11 9 10 8 8 7 7 8 7 6 6 6 5 5 5 4 4 4 5 5 4 4 4 4 5 4 5 4 4 4 3 3 3 4 3 3 3 2 2 4 5 6 6 8 7 6
5 4 5 4 4 3 4 3 5 1 4 1 1 4 4 7 4 18 16 1 1 3 5 2 7 11 11 10 12 14 17 19 18 16 18 15 14 14 15 16 17 14 16 16 12 10 11 13 13 12 12 11 10 10 9 8 8 8 8 7 6 6 6 5 5 5 5 5 4 5 5 5 5 4 4 5 5 5 5 4 3 3 3 3 4 4 4 4 3 4 6 5 6 7 8 7 6
4 4 9 6 4 5 3 4 3 3 4 2 1 9 13 10 14 25 8 3 5 6 6 4 6 10 12 12 10 8 10 7 10 16 19 20 19 18 21 20 18 17 11 12 12 12 13 14 13 13 12 12 12 11 9 8 7 7 8 7 6 7 5 5 6 6 5 5 4 5 5 5 4 4 4 5 6 5 5 4 3 4 3 3 3 5 5 5 5 6 6 6 7 6 8 8 6
4 2 1 9 7 8 7 5 5 6 3 3 4 9 11 16 23 22 5 4 5 6 8 4 5 7 10 13 13 12 8 3 7 13 17 17 15 16 19 15 14 13 12 10 12 14 11 9 9 10 12 12 12 10 9 8 8 7 7 7 7 7 6 6 6 5 5 5 5 5 5 5 4 4 5 5 5 5 5 5 5 4 3 3 4 5 5 5 6 6 6 6 6 6 7 8 6
3 4 0 4 7 5 4 1 2 5 3 5 5 10 13 11 18 11 4 3 3 9 10 5 5 7 9 10 11 12 13 12 14 15 15 19 17 15 15 11 12 12 11 12 16 13 12 11 10 9 12 13 13 11 11 9 8 8 8 7 7 7 6 6 6 5 5 5 5 5 5 5 5 5 5 5 5 5 5 5 5 5 3 3 4 5 6 5 6 7 6 7 6 6 6 6 5
1 5 4 2 4 4 6 5 3 3 2 6 7 9 17 13 16 9 3 6 2 7 11 10 6 7 9 11 12 13 13 13 13 14 11 6 4 5 9 14 15 14 15 14 13 13 13 12 11 10 13 13 13 12 10 9 9 8 7 8 7 7 6 6 6 6 6 5 5 5 5 5 5 5 5 5 5 5 5 5 4 4 4 4 5 5 6 6 6 6 5 9 8 6 7 6 5
3 4 6 3 2 5 8 3 1 4 2 3 9 8 10 6 11 8 8 11 13 12 11 10 6 9 10 10 12 13 13 10 10 11 11 10 8 7 9 9 13 16 13 14 15 13 13 13 13 12 14 14 13 12 10 9 8 8 8 7 7 7 6 6 6 6 5 5 5 5 5 5 5 6 6 6 5 5 5 5 4 4 4 5 5 5 6 6 7 7 5 4 8 7 7 9 6
2 1 3 1 2 2 3 5 7 3 1 2 5 10 16 4 4 7 6 2 5 9 12 14 8 6 9 10 11 12 13 13 14 14 15 14 11 12 11 12 11 11 11 12 14 15 15 13 12 12 12 13 11 10 10 8 7 7 7 7 7 7 7 6 6 6 6 6 5 5 5 5 6 6 6 6 5 5 4 5 4 5 5 5 5 6 6 5 6 8 7 5 5 8 7 7 7
2 1 2 4 2 5 8 1 3 8 7 5 7 12 17 6 6 8 8 8 7 11 11 9 9 6 9 10 11 12 12 13 15 14 15 15 13 11 10 12 13 12 10 12 12 12 12 12 11 12 13 12 11 10 9 8 7 7 6 7 7 6 6 6 6 6 6 6 6 6 5 5 6 6 6 6 6 5 5 4 5 5 5 5 6 6 6 6 6 6 9 7 6 5 6 6 7
1 1 2 0 4 4 2 3 4 1 3 7 9 13 15 4 7 6 7 5 9 15 13 9 10 6 8 10 11 12 13 14 14 14 14 12 11 11 10 11 12 12 10 10 12 12 12 12 11 11 12 11 10 9 9 8 7 8 8 6 6 6 6 6 6 6 6 6 6 6 6 6 6 6 6 6 6 5 5 5 5 5 5 6 7 7 7 7 8 9 8 11 9 7 5 6 7
5 2 4 6 5 9 5 4 5 8 8 7 11 16 18 8 7 4 4 6 7 11 15 15 12 9 7 9 11 14 15 16 15 15 13 11 9 7 7 8 10 11 10 11 12 13 14 14 13 14 11 11 11 11 10 10 10 8 8 9 8 7 7 6 6 6 6 6 7 7 6 6 6 6 6 6 6 5 5 5 6 5 5 6 7 7 8 7 7 8 8 6 11 10 5 5 5
4 5 5 8 3 11 4 4 2 2 3 6 10 15 19 14 11 7 6 7 12 12 12 14 15 11 8 11 13 14 15 12 12 10 7 7 8 10 10 10 12 14 13 14 16 16 13 12 13 12 10 11 12 11 10 9 9 9 7 7 6 7 8 8 7 6 7 6 7 7 6 6 7 7 6 6 5 6 6 6 6 6 6 6 5 6 7 8 8 8 9 7 2 8 7 7 8
4 5 6 7 8 6 6 6 4 5 5 12 14 16 19 16 14 9 6 7 10 11 10 13 14 13 9 9 13 13 11 12 12 11 10 13 13 12 11 11 13 15 15 15 12 11 12 12 11 11 11 11 11 11 10 10 8 6 7 5 7 5 2 5 6 6 6 7 7 7 6 6 7 6 6 6 6 5 6 6 6 6 6 7 7 7 7 8 8 10 10 10 7 3 4 4 6
5 4 3 9 5 1 5 0 0 2 5 5 5 11 14 11 10 8 6 7 10 11 8 11 11 12 13 12 12 13 14 15 14 12 14 13 13 13 12 12 13 12 12 12 13 15 13 12 12 12 12 11 10 11 10 8 7 6 5 7 5 5 5 4 5 6 6 7 7 6 5 6 7 7 7 6 5 5 6 6 6 6 6 6 8 8 7 8 7 7 6 8 11 8 5 6 5
4 6 7 9 7 5 7 6 3 4 7 9 11 12 15 12 13 8 6 7 10 14 13 13 15 12 13 11 12 14 16 16 14 13 12 13 15 15 16 15 14 15 15 15 16 15 12 16 14 13 11 11 10 10 10 8 8 7 6 6 6 6 4 6 7 6 7 7 7 6 7 6 7 7 6 6 6 6 6 6 6 6 7 6 7 8 8 9 9 8 9 9 10 10 8 5 6
4 6 11 11 8 7 8 9 5 2 6 8 5 5 10 8 8 10 8 5 9 10 14 15 15 15 11 13 13 12 14 14 16 16 17 17 17 16 15 15 16 15 16 16 16 16 13 11 12 12 11 11 11 11 10 9 9 10 9 10 10 9 8 10 12 11 9 8 8 6 6 6 7 6 6 6 6 6 6 6 6 7 6 6 6 7 7 6 7 7 8 9 8 7 11 7 7
3 7 8 11 11 9 9 9 2 4 6 4 6 8 10 2 4 4 7 8 12 9 9 12 12 14 11 12 12 12 14 13 11 13 16 16 16 16 16 16 17 17 17 16 14 14 14 13 13 13 12 11 11 11 11 9 10 10 12 11 9 9 10 7 6 7 8 7 6 7 6 5 6 7 6 6 6 6 6 6 7 7 7 6 6 7 7 9 8 9 7 7 8 7 6 9 10
9 2 6 6 8 9 10 11 9 7 4 7 2 4 9 11 6 5 6 4 6 7 10 11 8 11 11 12 13 13 14 14 14 14 14 17 18 18 19 18 16 18 17 14 14 14 16 16 15 14 11 11 11 10 11 11 11 10 11 10 9 9 9 8 8 7 6 7 7 7 6 5 5 6 7 6 7 7 7 7 7 8 7 7 7 7 8 7 7 5 7 7 6 7 9 9 9
5 0 6 7 7 9 9 7 7 7 7 9 8 5 6 9 5 6 4 6 7 13 13 14 12 10 11 12 14 14 15 16 15 14 15 16 17 18 17 17 18 18 15 15 15 16 16 14 14 13 13 12 11 12 12 12 11 11 10 9 9 7 7 7 6 6 7 7 7 6 6 6 5 5 6 7 7 8 7 8 7 8 8 7 7 7 7 8 10 10 8 6 7 6 7 5 7
7 9 3 4 4 5 7 7 7 7 4 9 11 8 7 13 2 3 4 10 13 12 15 17 15 12 12 11 13 13 12 13 15 17 16 16 17 18 19 19 18 17 16 17 17 14 12 12 14 15 14 12 11 12 12 12 11 10 11 11 11 8 7 7 7 8 7 7 8 7 6 6 6 6 6 6 6 6 7 8 8 8 9 8 6 7 6 5 5 6 8 8 7 8 6 6 8
2 3 3 5 3 4 3 5 5 3 4 10 13 13 9 11 4 6 6 6 9 10 12 14 13 11 10 9 11 10 10 11 13 14 14 15 16 16 16 17 18 16 13 14 13 13 13 14 15 16 15 11 12 13 13 14 12 11 11 11 11 11 10 10 9 9 8 7 7 7 7 6 6 7 6 5 6 7 7 8 8 8 7 6 7 7 7 7 7 6 6 6 7 8 7 7 5
2 1 0 5 8 2 1 2 2 4 5 9 12 12 11 12 4 6 7 9 7 9 12 16 16 11 8 6 6 9 10 11 12 14 15 14 13 13 10 13 13 13 11 13 12 13 13 13 14 15 14 14 13 13 13 13 12 12 11 11 12 11 12 11 12 11 10 10 8 8 6 6 6 6 6 6 6 6 6 6 6 7 7 7 6 5 6 7 7 4 4 5 6 5 5 7 6
2 2 0 1 3 3 3 1 3 4 8 4 7 10 7 12 11 7 9 9 11 10 11 14 15 14 10 6 7 8 9 10 12 14 15 14 15 16 14 12 9 9 12 13 15 15 14 14 16 17 16 15 14 13 14 14 13 13 12 12 11 11 12 12 11 11 10 9 8 8 8 8 6 6 6 7 7 8 6 7 6 7 6 6 7 7 6 6 6 6 5 6 5 7 7 7 7
5 4 3 3 4 3 4 5 1 3 3 5 5 6 10 4 7 11 15 19 19 17 15 15 17 16 12 8 7 8 8 9 12 13 14 16 16 15 16 15 14 13 14 14 15 14 13 14 16 17 17 15 13 13 14 14 14 13 12 11 11 11 11 11 11 11 10 9 9 10 10 9 9 8 8 8 8 8 6 7 7 7 6 6 7 7 7 6 6 6 6 7 7 5 5 6 6
8 4 8 7 3 4 4 5 6 6 6 4 6 4 4 6 6 11 16 19 18 16 16 15 16 15 11 11 8 7 9 10 11 12 14 16 17 18 16 15 14 14 16 15 14 14 14 14 15 17 16 15 15 15 13 15 13 12 11 11 11 10 11 10 10 9 10 10 8 9 9 7 8 7 8 7 7 7 7 6 6 7 6 6 6 6 5 5 4 4 3 4 4 5 5 6 5
5 3 2 5 11 4 8 3 2 2 2 5 3 4 3 7 5 10 13 17 16 14 14 11 12 9 7 8 9 9 11 12 12 13 14 15 18 18 16 16 16 15 17 15 16 15 15 16 17 19 19 17 16 15 15 15 13 11 11 12 12 11 9 9 8 8 9 10 10 10 9 8 7 8 7 7 8 8 8 7 6 6 6 6 6 7 7 6 6 5 4 4 5 3 6 6 6
4 7 9 9 4 3 0 2 1 3 2 8 1 7 9 8 12 15 12 11 13 14 12 8 10 9 2 4 6 7 9 11 11 13 15 16 16 17 17 17 16 16 16 16 17 17 18 18 17 17 16 14 16 16 15 13 13 12 12 12 11 11 11 12 10 10 10 9 9 8 8 8 8 8 7 7 8 7 7 7 7 6 6 6 6 7 7 6 6 6 5 5 5 4 5 6 5
3 3 7 2 1 4 3 5 2 1 3 5 1 6 7 6 7 8 10 11 13 13 8 6 6 2 4 5 5 7 9 11 13 15 16 18 19 18 16 15 18 19 19 18 18 17 17 18 18 19 17 18 17 16 15 14 14 13 11 12 12 12 11 11 10 11 10 9 8 7 7 8 8 7 7 7 7 8 7 6 6 6 6 6 6 6 6 6 6 5 5 5 5 6 6 4 4
6 4 2 5 1 3 1 2 4 3 4 3 4 7 8 8 8 4 4 0 3 3 2 2 3 1 3 5 7 7 7 9 11 13 15 17 18 18 17 17 17 18 18 19 19 19 16 14 15 16 19 19 16 12 11 10 11 10 11 12 12 10 9 9 9 10 10 11 10 9 9 8 8 8 8 8 8 7 7 6 6 6 6 6 6 6 6 6 6 6 5 5 5 5 6 6 4
5 1 2 3 3 2 4 4 1 2 3 2 6 3 7 7 7 6 2 3 2 1 3 3 5 5 5 6 7 7 7 7 11 12 14 16 17 18 17 17 17 18 16 15 15 14 16 16 16 16 13 11 12 14 14 14 13 11 11 10 10 11 10 10 10 11 10 11 11 10 10 10 11 9 8 9 9 9 8 8 6 7 6 6 6 6 6 6 5 5 6 6 5 6 6 7 6
2 2 2 2 1 2 3 0 4 5 3 2 2 5 8 8 4 7 2 3 4 2 3 4 5 6 5 5 7 8 9 7 9 12 14 15 16 16 17 16 17 17 17 17 17 18 17 15 16 16 17 17 17 15 14 13 12 12 12 13 12 11 12 10 10 11 11 10 10 10 10 10 8 9 9 9 9 9 8 8 8 7 7 7 7 7 6 6 6 6 5 6 6 6 7 5 6
5 6 5 6 5 3 5 6 1 2 3 3 2 9 7 8 5 7 5 10 10 5 5 5 5 6 5 6 7 9 9 7 8 11 13 15 16 16 16 15 14 15 15 15 14 14 14 14 15 16 16 15 16 15 15 14 13 12 13 12 12 10 11 10 11 11 11 10 10 10 10 9 11 9 10 10 9 8 8 8 8 8 7 7 7 7 7 6 6 6 6 5 6 6 6 6 6
Wind_Direction
43 22 76 112 104 115 84 352 23 313 61 239 171 278 240 219 214 15 348 327 20 187 335 18 23 91 243 232 235 356 336 137 187 134 197 216 140 156 156 141 131 148 154 161 166 164 159 157 157 158 155 151 150 147 147 146 144 142 140 137 136 136 135 132 130 128 126 125 126 127 128 128 129 127 130 132 136 136 134 131 123 128 125 125 117 104 103 103 106 103 102 102 102 99 91 90 89
45 48 76 90 93 97 16 140 96 345 39 326 225 140 234 225 42 308 357 25 211 290 290 101 85 14 324 312 164 85 88 261 338 38 39 109 112 137 151 146 139 150 156 164 164 159 159 159 159 158 155 152 151 149 149 148 147 145 142 140 140 138 136 135 134 132 130 129 129 127 128 129 129 128 133 138 129 123 130 140 139 136 136 119 109 106 101 101 107 107 103 102 98 95 88 84 84
53 68 76 25 41 85 131 47 279 15 313 286 218 202 157 79 127 241 287 192 214 196 226 53 102 68 332 338 24 119 236 301 95 85 88 134 122 192 161 147 141 145 152 161 164 157 159 162 161 158 156 154 152 151 151 151 150 148 145 143 143 140 140 142 140 138 134 132 130 128 126 125 125 130 137 139 136 139 138 132 135 137 132 118 112 109 104 110 110 104 101 100 96 90 85 84 81
98 76 127 108 16 354 56 29 137 191 259 249 302 266 145 160 183 171 234 202 176 158 47 9 47 217 69 349 294 317 269 316 206 138 129 183 206 158 156 148 140 140 150 158 164 162 162 164 160 162 158 155 154 154 154 154 153 150 150 149 145 146 149 149 144 136 137 135 131 128 126 123 124 131 138 141 142 143 142 134 134 138 132 121 114 108 113 112 105 102 99 97 94 88 84 70 56
82 130 110 95 116 314 131 192 177 128 221 185 268 197 171 167 185 215 253 221 194 117 80 124 80 304 162 176 324 42 281 279 321 150 128 175 85 152 148 147 143 144 152 160 161 163 167 165 161 163 159 158 156 155 157 157 156 155 154 151 148 152 154 148 141 140 144 138 131 130 132 129 126 131 139 143 145 147 142 132 139 142 133 120 110 113 117 108 101 97 94 92 86 78 64 57 47
88 72 7 76 264 202 64 2 303 210 220 171 250 187 191 185 140 159 197 236 242 108 142 101 149 310 352 274 160 199 291 93 315 153 134 129 142 152 142 143 144 143 150 152 157 163 172 165 162 163 161 161 159 157 159 160 159 157 157 153 151 157 154 145 142 149 144 136 134 134 132 133 130 134 140 146 153 151 137 126 137 134 129 118 115 114 111 104 97 93 91 81 73 66 60 50 40
98 80 15 17 291 10 187 190 224 205 251 201 244 222 166 196 146 114 47 32 339 325 183 130 109 87 10 307 23 126 115 275 278 328 152 135 132 149 141 143 144 141 145 152 152 160 179 163 160 161 163 163 161 158 161 162 162 161 159 155 157 158 151 146 148 150 141 137 135 136 136 135 138 137 141 151 156 153 131 132 139 136 118 120 118 119 114 102 94 91 83 74 65 60 56 46 35
134 114 263 136 251 62 236 212 223 180 263 208 221 263 200 171 148 141 230 136 254 133 253 142 155 111 249 351 253 226 73 39 280 138 112 130 140 152 147 145 143 144 148 150 152 158 173 160 159 163 166 165 162 160 161 165 164 163 161 159 159 157 151 149 150 147 141 134 135 137 135 138 140 143 145 153 154 145 137 137 135 113 112 117 118 122 106 96 94 88 80 71 61 55 50 43 39
24 95 31 77 237 8 338 209 226 245 282 283 272 251 275 153 157 145 159 205 169 273 307 151 145 89 252 101 205 278 60 35 56 99 120 132 149 161 151 152 147 145 147 146 150 160 168 160 161 166 167 166 164 163 163 166 166 165 164 163 161 157 155 154 150 147 140 135 137 136 137 137 143 145 146 151 152 150 148 136 127 123 118 120 119 106 101 97 93 86 77 68 59 51 47 45 43
63 101 251 183 135 230 221 280 168 224 224 226 207 235 262 133 155 158 174 223 200 192 237 209 165 211 161 195 303 307 99 71 89 90 121 126 138 158 140 145 150 143 145 146 151 161 164 162 163 167 167 167 165 164 165 168 168 169 166 166 162 159 158 154 148 146 139 142 145 139 140 139 141 144 147 150 155 151 141 133 129 126 124 111 105 100 96 92 86 80 71 67 60 55 47 44 48
214 20 139 171 207 225 219 238 237 282 245 255 241 235 251 117 140 136 190 207 202 207 255 98 289 226 159 236 201 202 116 112 105 139 148 140 142 150 138 136 142 145 142 147 152 160 161 165 166 168 168 167 164 164 166 168 169 169 166 166 162 163 160 153 150 147 144 149 143 140 141 142 143 147 147 150 152 149 146 141 138 134 131 123 105 100 93 87 82 74 70 66 62 59 52 44 50
225 184 122 218 219 210 211 211 220 240 277 277 259 212 168 184 128 221 165 216 217 248 216 161 234 159 194 282 266 347 110 117 111 132 135 138 144 148 140 137 141 144 139 145 153 159 163 166 165 170 170 167 164 166 166 170 171 168 167 165 164 163 157 152 153 149 151 150 141 140 144 144 146 149 153 154 160 159 153 149 142 136 133 123 115 106 98 87 79 74 71 69 64 63 54 46 52
201 145 151 209 217 198 183 203 221 212 238 232 215 249 178 152 180 208 185 196 197 212 269 223 90 139 227 199 223 174 166 140 125 132 137 141 143 137 135 135 144 143 143 146 156 161 160 167 166 171 171 168 165 166 169 169 170 168 167 166 166 164 156 155 156 153 154 146 141 143 145 148 151 151 154 159 160 164 158 152 146 144 138 130 121 114 103 93 81 76 74 73 70 69 63 50 56
186 183 135 236 72 203 180 220 144 202 239 222 200 285 202 204 195 196 139 170 207 195 232 185 150 155 219 356 287 197 178 147 133 132 134 132 133 129 131 136 144 144 146 153 161 161 163 167 167 169 170 167 166 167 173 170 171 171 166 166 165 163 157 160 159 158 155 150 151 150 149 151 155 154 157 160 165 161 159 152 148 144 142 138 126 119 111 95 84 78 77 76 74 72 67 56 58
216 162 131 179 220 189 193 212 183 195 240 176 232 165 276 248 183 339 172 157 232 221 12 118 159 131 241 182 277 210 157 145 135 131 126 124 127 130 136 138 146 146 146 158 160 161 168 166 166 166 165 162 166 167 169 173 173 171 169 169 167 164 161 162 162 162 161 157 157 155 152 155 158 158 157 161 164 164 160 157 149 149 146 143 133 121 111 99 85 81 79 77 76 74 70 62 59
182 125 123 204 232 201 223 211 149 203 243 175 215 141 197 260 198 221 244 187 232 257 129 199 207 197 213 182 232 116 133 135 136 126 123 122 127 130 134 140 148 151 157 161 162 166 167 168 164 164 160 164 164 164 166 172 176 174 172 172 169 167 166 165 166 167 165 161 159 158 156 157 161 162 160 158 163 164 164 157 156 156 148 146 139 132 111 98 84 81 82 80 78 77 73 66 65
90 100 238 216 242 201 189 191 155 226 169 208 190 163 199 236 205 212 230 140 175 211 211 192 193 51 192 265 104 126 123 127 126 125 125 132 141 146 144 147 151 155 162 167 166 170 170 171 166 164 164 162 161 167 163 167 177 175 175 175 172 171 169 171 166 171 166 165 159 160 160 135 139 160 155 147 160 158 161 159 162 160 151 149 146 131 116 97 85 81 82 82 80 79 71 56 74
91 202 210 236 223 214 175 200 178 170 172 190 178 189 192 233 219 222 144 209 210 206 210 308 36 14 37 112 124 125 132 132 137 136 141 146 164 161 163 163 163 168 171 170 180 175 168 174 173 168 164 165 165 168 170 167 176 173 170 176 173 173 174 172 169 168 165 137 161 150 113 136 129 124 142 161 136 161 163 164 163 161 155 157 142 139 117 98 84 80 76 79 83 80 71 61 74
186 199 179 237 204 236 152 191 198 158 206 166 200 197 195 223 206 202 228 224 206 242 188 63 62 30 61 89 126 133 140 139 144 143 149 162 181 181 168 166 169 171 177 176 181 182 176 172 173 171 169 167 168 171 169 170 175 153 164 169 168 174 177 163 149 149 103 123 107 118 135 121 139 137 159 157 138 157 163 167 164 169 161 169 158 147 130 96 85 71 62 69 79 75 69 65 88
245 172 230 232 79 242 248 348 222 213 150 199 202 221 206 223 196 118 223 225 213 222 173 42 157 178 149 136 139 142 147 152 152 154 160 168 180 197 190 175 177 180 176 176 175 181 182 180 175 174 171 169 171 172 169 172 169 151 157 163 166 158 165 136 132 120 124 120 125 126 132 138 138 140 181 172 168 150 174 168 169 165 169 170 162 83 57 50 50 55 44 56 70 63 77 87 95
284 164 226 236 331 21 290 23 0 335 343 281 212 225 220 235 216 174 184 212 215 215 192 166 194 187 167 163 152 153 157 158 161 160 161 170 175 183 201 215 197 176 172 166 174 182 184 182 174 176 174 174 172 173 174 174 164 155 160 163 159 155 137 123 129 127 134 132 134 138 139 142 139 155 209 97 127 134 130 47 102 98 74 77 91 85 60 4 32 39 47 55 69 98 97 101 113
116 215 70 266 3 1 282 342 353 6 353 13 330 265 249 70 164 223 199 207 217 201 189 185 181 179 157 166 172 168 175 167 169 169 173 173 181 179 182 200 211 185 178 180 178 177 183 184 178 176 175 178 176 173 176 173 166 163 165 162 157 154 135 127 134 139 141 148 142 140 145 138 146 149 178 135 139 136 153 124 111 126 108 131 114 135 139 358 4 30 34 62 85 96 108 113 120
249 282 285 27 115 334 301 319 323 26 348 343 328 289 342 296 266 214 214 226 231 180 182 192 180 176 177 166 153 170 181 184 176 181 174 173 182 183 175 175 186 197 196 188 181 181 179 183 180 178 178 177 178 173 169 174 171 166 163 163 162 157 136 132 150 150 158 154 151 150 152 146 152 155 168 157 139 139 153 163 154 140 146 162 180 169 212 244 229 274 359 86 99 111 110 107 116
200 252 319 312 286 263 273 300 330 10 9 309 265 300 285 296 295 316 265 247 246 239 192 188 184 173 144 140 168 178 191 194 193 186 182 180 174 173 173 176 182 188 202 194 192 187 183 183 179 178 179 177 179 176 170 175 168 163 167 170 172 170 150 154 161 176 159 163 163 169 163 155 151 155 165 158 142 140 158 163 153 159 173 189 195 180 199 215 226 216 105 72 103 112 113 117 117
241 283 321 301 5 298 316 337 332 325 318 260 331 311 286 320 277 327 286 278 272 253 225 212 186 160 157 161 173 183 188 198 210 213 193 168 174 165 167 175 181 180 203 198 192 191 189 182 178 183 181 182 180 174 175 173 166 165 168 174 169 180 159 172 175 170 177 172 168 174 166 161 158 161 167 163 139 151 151 152 167 185 187 193 177 207 202 204 215 171 76 80 103 109 112 122 117
34 301 337 319 306 311 302 324 284 297 307 57 340 297 304 296 311 270 253 257 263 268 274 171 168 172 176 172 174 180 189 193 196 189 199 183 166 170 177 180 181 187 190 191 193 194 190 184 182 184 182 183 179 174 178 172 169 168 171 178 164 175 165 174 164 180 185 168 171 179 192 172 176 177 167 148 155 153 155 157 169 191 196 189 178 196 199 157 156 90 87 103 110 111 121 124 118
337 301 307 301 274 283 276 239 284 305 277 305 278 293 310 304 31 271 251 230 251 261 249 161 159 186 190 191 188 183 185 190 185 189 172 177 178 185 182 180 191 189 178 191 194 192 188 183 186 184 185 184 179 181 179 176 170 170 170 173 167 176 166 160 170 179 182 181 175 179 196 186 176 177 165 162 158 162 159 167 181 182 182 190 184 192 160 144 117 119 116 119 116 116 118 122 121
330 312 309 305 302 258 271 304 279 311 288 211 159 275 274 270 233 251 249 247 24 306 275 217 180 185 197 213 207 203 198 192 184 167 178 179 188 189 184 190 194 183 187 189 188 183 186 187 184 185 183 184 183 184 181 177 174 172 169 174 172 177 162 160 171 175 188 187 172 182 194 191 178 176 166 162 162 161 167 170 172 175 192 191 184 162 125 125 124 97 101 98 103 112 115 115 113
309 4 331 306 315 303 208 227 235 180 251 221 26 321 277 255 246 252 266 355 291 283 285 215 205 191 194 205 217 228 227 234 186 177 184 189 193 188 190 194 185 184 185 177 179 184 187 186 186 186 182 184 187 185 183 177 173 171 171 179 177 176 165 164 172 182 185 181 174 182 193 189 179 166 170 168 166 163 159 148 165 180 170 168 163 134 130 127 109 100 89 99 99 100 111 114 108
328 360 298 328 341 318 257 199 210 194 228 142 83 254 243 246 249 257 288 305 307 296 275 215 209 208 198 195 201 211 218 211 228 210 191 198 196 193 195 189 185 182 170 170 178 189 185 188 185 183 185 186 187 185 181 179 175 172 174 180 183 174 173 170 179 179 181 173 171 184 190 189 177 166 163 165 153 157 161 175 176 175 167 154 139 133 126 133 114 108 113 104 107 110 121 125 117
347 268 27 261 333 271 345 166 222 197 165 172 145 246 255 250 259 269 19 331 250 268 265 236 205 207 206 204 204 206 209 203 203 214 222 201 194 193 192 176 178 180 168 174 183 180 186 187 185 187 187 187 188 186 186 182 174 173 176 180 184 175 167 174 173 173 179 168 165 183 191 187 178 170 172 165 164 162 165 175 171 179 155 138 129 125 124 118 121 120 122 104 99 97 104 118 110
325 12 282 8 169 279 343 320 143 180 296 176 153 245 251 243 259 277 309 297 257 253 264 254 191 211 210 202 205 210 212 207 212 211 213 258 244 199 191 185 179 181 181 174 169 176 186 187 187 188 187 190 190 188 185 179 177 173 174 184 183 172 166 175 171 177 174 157 168 181 190 184 168 169 172 166 161 172 170 174 174 155 141 121 120 120 118 119 116 112 114 126 117 106 113 93 90
347 167 275 271 335 284 348 313 281 266 252 287 191 256 274 247 252 265 253 256 263 263 267 272 223 200 207 208 208 209 211 214 221 213 210 206 206 189 184 185 188 188 176 168 172 174 180 184 187 189 190 190 191 186 182 179 174 173 172 181 184 169 166 175 173 170 159 161 170 184 184 177 159 168 171 167 165 172 166 162 158 145 131 123 120 114 113 128 125 118 100 94 124 127 117 118 87
309 12 217 179 233 312 283 311 325 32 130 281 261 246 254 262 323 304 290 201 282 275 265 265 252 202 209 204 209 210 209 207 207 205 205 200 197 193 185 182 184 185 183 174 173 174 177 180 185 187 190 192 189 184 181 177 174 168 170 178 178 171 170 172 171 165 166 164 170 187 178 167 158 167 167 166 168 173 159 156 144 136 127 123 116 111 116 121 122 123 106 76 97 124 130 125 119
119 177 268 309 263 231 244 336 263 345 316 284 276 269 269 281 285 277 275 295 280 268 264 269 271 219 211 207 203 208 211 211 217 212 205 199 194 191 182 175 174 181 185 178 172 171 173 178 180 187 190 190 186 179 172 174 171 168 166 171 172 170 165 167 167 170 167 159 177 183 172 167 162 166 166 165 163 162 148 145 144 140 133 129 119 115 120 118 117 117 119 102 72 65 117 118 119
132 156 193 232 309 285 246 239 282 266 271 296 286 268 274 299 285 287 300 273 264 271 276 268 268 238 213 210 205 204 207 216 220 213 207 199 192 183 180 174 176 177 176 174 173 172 176 179 182 186 189 185 179 173 173 176 175 175 171 166 170 176 168 164 176 175 161 168 177 174 175 168 163 165 168 167 162 158 154 153 144 139 140 135 128 126 132 138 133 120 117 118 105 86 67 112 121
288 312 286 253 241 272 253 263 276 307 311 264 255 271 279 275 257 272 294 315 294 274 270 267 260 251 208 216 213 207 206 211 216 211 204 194 179 170 167 170 171 171 174 174 177 181 182 183 180 187 185 183 180 179 180 180 181 175 177 180 181 179 170 166 171 170 168 174 171 173 173 169 164 163 167 163 166 160 154 148 142 141 149 142 143 147 145 135 131 128 119 108 124 115 99 120 123
256 262 267 274 228 267 259 261 243 312 343 279 279 287 281 279 278 270 270 278 276 270 271 271 264 250 225 208 217 214 210 217 218 209 182 156 167 167 164 167 167 172 184 182 186 185 181 182 187 185 181 186 189 187 183 183 187 188 174 176 168 168 166 170 171 169 171 168 169 171 171 167 166 167 168 168 163 159 152 157 155 152 150 143 125 125 130 127 125 126 126 97 52 129 140 165 160
241 231 257 279 262 263 274 232 221 233 227 265 272 273 275 273 272 268 249 248 261 261 254 261 263 257 235 218 214 218 214 214 215 206 181 183 177 170 170 174 180 183 183 186 181 170 178 185 190 187 187 187 192 189 183 186 182 165 159 160 162 153 167 161 156 159 157 163 168 168 166 167 165 168 167 167 163 164 161 158 161 148 145 136 123 128 131 133 143 146 148 137 122 53 109 179 173
234 250 257 253 269 304 304 249 249 247 204 263 265 274 276 278 265 252 236 225 252 260 255 261 262 259 247 223 210 213 214 212 209 194 191 186 179 176 173 176 179 176 177 181 183 186 185 186 186 188 190 190 191 194 189 180 165 146 136 141 143 146 157 141 131 141 146 146 157 160 166 169 168 166 168 166 163 164 161 162 151 148 148 145 140 140 145 144 145 147 140 143 138 130 157 193 216
218 212 234 255 257 225 222 270 269 273 265 257 280 283 281 272 266 260 248 234 250 266 270 263 264 253 252 245 222 210 211 211 207 196 197 188 184 183 182 180 175 179 181 186 188 188 189 191 186 183 185 191 192 193 187 165 147 139 126 119 120 96 96 138 143 155 153 162 155 158 173 171 169 164 165 168 166 167 162 156 153 149 145 147 144 143 154 162 164 161 156 152 162 151 169 181 206
264 221 222 235 241 250 251 261 286 315 289 256 242 293 268 273 256 236 233 236 248 250 254 254 254 260 245 243 232 219 220 215 203 196 194 191 191 190 186 181 181 182 185 190 190 190 184 181 180 182 185 189 192 193 181 169 171 163 154 153 166 170 166 170 178 173 166 169 166 160 160 171 167 158 160 166 168 158 159 158 147 144 146 149 152 149 146 144 157 163 174 166 170 176 161 168 191
249 254 198 226 237 235 244 261 245 269 242 268 153 222 278 41 325 243 226 212 241 257 259 261 253 251 240 235 229 220 215 219 226 212 194 192 195 191 190 186 184 186 193 187 184 183 181 179 183 184 185 187 190 186 177 175 175 178 177 178 173 175 172 191 177 170 167 160 152 167 164 162 163 155 156 159 160 163 156 155 150 149 151 148 140 136 151 165 171 178 173 176 179 161 148 171 187
243 194 154 212 225 227 234 233 216 234 254 273 272 210 271 283 251 259 251 251 259 259 266 265 253 260 246 229 228 219 213 211 205 210 211 198 192 191 192 190 186 194 190 180 180 180 183 184 181 182 183 187 188 180 180 184 182 182 179 179 175 178 180 174 176 169 161 152 156 160 152 156 150 149 150 157 160 159 156 155 152 149 148 156 154 162 166 171 165 175 186 184 164 173 174 175 184
242 142 190 225 219 232 239 232 229 231 248 268 271 236 260 257 249 225 249 268 261 270 272 270 265 256 255 247 235 223 214 209 202 205 206 204 198 199 195 190 194 191 182 181 181 186 185 178 175 177 184 185 185 180 182 187 186 182 181 174 175 178 162 161 159 158 157 153 153 146 148 145 140 145 159 160 164 161 159 155 150 145 149 161 167 162 165 168 172 170 172 166 177 180 187 180 162
260 256 258 224 234 236 232 233 231 240 201 254 252 233 248 270 219 217 236 227 251 258 266 267 265 258 256 245 246 238 223 211 207 204 203 204 205 200 196 194 191 191 186 184 185 179 174 171 177 180 185 184 180 181 184 186 185 179 182 182 175 164 154 151 160 165 166 161 159 155 145 144 147 148 162 165 155 153 147 147 150 156 166 162 159 166 154 149 160 181 177 183 182 178 178 171 184
244 29 305 292 270 238 235 211 215 234 234 243 242 244 220 273 191 215 204 221 220 239 258 263 265 266 263 249 240 234 228 216 208 207 206 204 206 207 198 193 197 191 183 182 175 175 174 177 178 182 185 179 180 182 182 186 184 185 186 181 176 166 161 158 165 169 166 161 161 156 154 155 157 158 157 149 145 149 159 160 158 160 154 153 155 157 156 160 184 190 178 181 190 182 176 174 175
177 205 74 345 312 329 282 303 112 192 246 233 237 236 227 249 225 232 244 258 245 228 244 258 262 258 254 256 242 239 223 218 209 202 203 201 202 211 210 208 197 186 178 175 175 174 177 179 178 181 181 183 181 181 184 185 185 187 187 181 177 171 164 170 175 169 169 166 164 159 152 147 156 150 150 139 141 162 154 150 154 151 152 155 161 155 156 170 173 152 172 179 197 202 170 166 166
210 258 342 133 269 9 329 198 268 206 235 235 226 225 256 238 250 253 272 262 254 237 238 253 262 265 261 251 239 234 225 219 211 203 198 197 199 200 198 199 183 175 181 181 177 177 178 179 179 181 187 182 181 180 185 185 186 188 186 182 177 172 173 173 175 174 170 171 165 159 162 167 154 154 163 147 159 167 154 149 157 159 159 163 154 158 163 163 159 156 161 181 184 187 185 171 171
187 192 160 165 236 228 240 270 250 300 285 269 250 244 244 274 267 207 231 241 239 239 237 240 249 255 258 251 232 232 230 218 216 208 198 194 198 200 196 189 183 180 180 183 182 177 177 180 181 184 187 182 178 181 184 186 191 187 185 182 178 174 178 174 175 172 173 171 170 172 176 171 171 172 163 167 164 160 162 167 162 164 163 154 156 158 157 154 152 157 176 172 181 182 162 170 171
202 180 175 188 185 160 236 215 238 239 237 284 288 14 218 184 233 189 217 236 237 234 234 233 240 246 246 247 242 224 229 221 213 211 205 197 196 197 192 186 184 183 182 182 181 181 177 180 181 185 183 183 181 183 184 189 188 186 184 182 179 178 177 177 176 172 168 167 173 177 179 165 164 160 159 151 154 157 160 158 160 154 154 150 140 131 128 135 124 120 139 166 133 142 147 145 150
215 154 116 167 226 145 238 191 216 282 321 334 285 213 224 236 233 227 218 221 234 233 237 239 250 255 246 250 242 228 223 221 209 205 206 205 198 197 192 186 183 183 183 182 183 180 180 184 185 187 185 182 181 181 188 187 186 183 181 182 183 178 175 173 168 166 169 168 172 176 171 161 161 158 157 149 155 158 160 159 154 148 142 137 137 137 143 138 136 132 128 140 129 124 137 143 152
223 168 224 218 147 146 339 334 22 73 39 256 215 301 282 282 280 268 250 250 232 224 228 229 242 247 243 245 254 246 236 224 213 204 198 200 206 203 192 185 183 183 182 184 184 182 183 184 184 185 184 179 182 187 187 185 182 181 185 182 180 178 176 176 171 166 165 167 171 171 158 160 152 157 152 153 151 158 161 160 152 144 143 145 148 149 144 136 127 133 135 144 138 132 128 142 140
96 193 231 62 95 127 137 226 336 43 233 266 111 245 277 260 258 264 257 212 227 227 226 229 249 257 227 244 247 250 246 235 218 204 197 194 199 203 197 189 186 184 183 183 185 186 187 186 183 182 180 181 187 184 184 183 183 182 179 184 186 183 178 175 166 162 158 156 161 146 139 149 164 158 153 155 154 156 162 158 146 145 146 153 151 131 125 121 126 124 133 134 137 133 117 98 116
207 189 196 141 283 231 304 106 256 227 250 288 266 259 249 221 248 324 324 348 272 281 277 299 304 327 268 262 261 260 258 245 230 211 199 195 197 199 195 191 190 189 185 184 185 184 183 183 183 183 184 186 180 176 177 180 182 182 182 185 183 181 179 171 164 158 157 160 160 159 160 154 141 155 152 153 158 158 158 151 148 148 153 153 140 135 131 134 141 137 139 131 135 135 132 129 133
228 283 296 168 119 187 138 196 130 95 268 34 288 335 249 213 229 187 248 54 336 280 319 284 255 241 248 264 272 282 290 248 224 212 202 198 198 197 195 193 189 187 186 188 183 180 180 181 179 182 180 167 167 177 180 184 185 181 180 180 182 179 176 171 166 160 163 164 163 159 152 155 171 157 157 157 160 161 159 157 158 156 157 149 143 134 134 138 142 147 142 134 146 144 138 137 133
150 132 231 172 207 228 103 33 152 162 175 186 246 299 262 260 212 202 201 288 292 268 272 268 243 240 243 255 263 273 274 257 219 210 203 198 198 199 196 193 192 189 187 183 180 180 181 180 179 177 174 177 180 180 179 184 177 183 179 183 181 177 176 167 163 165 161 162 158 158 164 170 147 159 157 160 162 163 161 160 159 164 163 159 150 146 149 151 145 144 141 140 144 147 138 133 130
148 164 206 173 181 174 201 250 145 142 128 227 200 257 276 278 309 271 276 301 286 285 264 273 273 256 251 245 245 246 266 265 220 211 202 197 196 196 195 194 193 189 187 184 178 175 177 179 179 179 179 179 177 177 183 181 180 181 183 182 179 176 169 165 164 165 163 160 158 160 161 156 165 164 164 162 160 157 159 159 163 167 164 159 159 155 155 149 151 147 138 146 152 149 140 135 137